FW9390 Weather Reports


time (UTC)temp
F
wind
direction
speed
knots
gust
knots
rain 1hr
in
rain 24hr
in
rain mn
in
humidity
%
barometer
mb
20260507200056 52 103 0.0 1.7 0.00 0.00 0.00 83 1014.3
20260507194542 51 0 0.0 1.7 0.00 0.00 0.00 83 1014.2
20260507193103 51 103 0.9 3.5 0.00 0.00 0.00 83 1014.1
20260507191542 52 103 0.9 2.6 0.00 0.00 0.00 82 1014.0
20260507190040 52 103 0.9 2.6 0.00 0.00 0.00 81 1014.1
20260507184544 53 103 0.0 1.7 0.00 0.00 0.00 80 1014.1
20260507183049 53 103 0.9 2.6 0.00 0.00 0.00 78 1014.2
20260507181543 54 126 0.0 0.9 0.00 0.00 0.00 79 1014.2
20260507180040 53 126 0.9 6.1 0.00 0.00 0.00 79 1014.3
20260507174546 53 120 4.3 7.8 0.00 0.00 0.00 78 1014.2
20260507173101 54 160 4.3 7.0 0.00 0.00 0.00 77 1014.2
20260507171546 54 128 3.5 7.8 0.00 0.00 0.00 79 1014.3
20260507170048 55 141 5.2 13.0 0.00 0.00 0.00 79 1014.3
20260507164548 55 157 7.0 11.3 0.00 0.00 0.00 78 1014.2
20260507163040 55 154 4.3 8.7 0.00 0.00 0.00 81 1014.3
20260507161553 55 145 5.2 7.8 0.00 0.00 0.00 79 1014.2
20260507160057 55 150 7.0 13.0 0.00 0.00 0.00 81 1014.3
20260507154546 57 143 5.2 8.7 0.00 0.00 0.00 75 1014.3
20260507153044 55 179 7.0 11.3 0.00 0.00 0.00 79 1014.4
20260507151540 55 157 6.1 9.6 0.00 0.00 0.00 78 1014.4
20260507150038 56 155 4.3 7.8 0.00 0.00 0.00 78 1014.3
20260507144548 55 186 2.6 5.2 0.00 0.00 0.00 78 1014.3
20260507143045 55 139 2.6 6.1 0.00 0.00 0.00 79 1014.4
20260507141549 55 191 2.6 5.2 0.00 0.00 0.00 78 1014.5
20260507140043 55 186 2.6 5.2 0.00 0.00 0.00 78 1014.8
20260507134544 55 161 2.6 5.2 0.00 0.00 0.00 80 1014.8
20260507133045 55 162 2.6 5.2 0.00 0.00 0.00 79 1014.8
20260507131545 55 140 2.6 5.2 0.00 0.00 0.00 79 1014.9
20260507130044 56 159 3.5 7.8 0.00 0.00 0.00 77 1015.0
20260507124543 57 187 4.3 7.0 0.00 0.00 0.00 78 1014.9
20260507123045 57 159 3.5 7.8 0.00 0.00 0.00 79 1014.9
20260507121541 56 137 3.5 7.8 0.00 0.00 0.00 76 1015.0
20260507120038 56 161 5.2 9.6 0.00 0.00 0.00 78 1014.9
20260507114543 56 194 4.3 8.7 0.00 0.00 0.00 79 1014.9
20260507113044 56 175 6.1 9.6 0.00 0.00 0.00 78 1014.9
20260507111545 56 168 6.1 11.3 0.00 0.00 0.00 79 1014.9
20260507110043 55 152 7.0 10.4 0.00 0.00 0.00 79 1014.9
20260507104541 54 144 7.0 12.2 0.00 0.00 0.00 81 1015.0
20260507103038 53 148 7.0 12.2 0.00 0.00 0.00 82 1015.0
20260507101538 54 159 7.0 13.0 0.00 0.00 0.00 83 1014.9
20260507100044 54 132 7.0 13.9 0.00 0.00 0.00 81 1015.0
20260507094544 54 134 7.8 15.6 0.00 0.00 0.00 82 1014.8
20260507093045 53 126 9.6 15.6 0.00 0.00 0.00 83 1014.7
20260507091540 53 142 10.4 14.8 0.00 0.00 0.00 83 1014.7
20260507090039 53 123 13.0 16.5 0.00 0.00 0.00 84 1014.7
20260507084541 53 142 8.7 16.5 0.00 0.00 0.00 84 1014.6
20260507083040 52 138 13.9 18.2 0.00 0.00 0.00 85 1014.5
20260507081543 52 144 8.7 14.8 0.00 0.00 0.00 84 1014.5
20260507080042 52 138 7.0 14.8 0.00 0.00 0.00 85 1014.5
20260507074542 51 117 7.0 17.4 0.00 0.00 0.00 86 1014.4
20260507073040 50 116 7.8 16.5 0.00 0.00 0.00 87 1014.4
20260507071537 49 146 7.0 13.9 0.00 0.00 0.00 87 1014.3
20260507070042 49 118 7.8 15.6 0.00 0.00 0.00 87 1014.1
20260507064545 49 110 4.3 13.9 0.00 0.00 0.00 86 1014.1
20260507063050 49 121 6.1 15.6 0.00 0.00 0.00 86 1014.1
20260507061543 49 92 7.0 16.5 0.00 0.00 0.00 86 1014.0
20260507060044 48 97 6.1 11.3 0.00 0.00 0.00 86 1014.0
20260507054542 48 105 4.3 13.0 0.00 0.00 0.00 85 1014.0
20260507053040 48 115 6.1 13.0 0.00 0.00 0.00 85 1014.1
20260507051539 48 56 3.5 9.6 0.00 0.00 0.00 85 1014.1
20260507050041 48 116 5.2 12.2 0.00 0.00 0.00 85 1014.0
20260507044544 48 101 5.2 12.2 0.00 0.00 0.00 84 1013.9
20260507043039 49 102 5.2 11.3 0.00 0.00 0.00 84 1013.9
20260507041550 49 136 6.1 13.0 0.00 0.00 0.00 83 1013.8
20260507040053 49 115 6.1 11.3 0.00 0.00 0.00 83 1013.8
20260507034545 49 105 4.3 12.2 0.00 0.00 0.00 83 1013.8
20260507033046 49 119 6.1 11.3 0.00 0.00 0.00 82 1013.8
20260507031541 49 86 4.3 9.6 0.00 0.00 0.00 81 1013.7
20260507030038 49 129 6.1 11.3 0.00 0.00 0.00 81 1013.9
20260507024537 49 113 3.5 7.8 0.00 0.00 0.00 81 1013.9
20260507023037 50 101 2.6 7.0 0.00 0.00 0.00 80 1014.0
20260507021550 50 115 3.5 7.8 0.00 0.00 0.00 80 1013.9
20260507020040 50 105 4.3 8.7 0.00 0.00 0.00 80 1014.0
20260507014551 50 115 4.3 10.4 0.00 0.00 0.00 81 1014.0
20260507013103 50 0 0.9 3.5 0.00 0.00 0.00 89 1014.0
20260507011545 50 91 0.0 1.7 0.00 0.00 0.00 88 1013.9
20260507010044 50 91 0.0 1.7 0.00 0.00 0.00 88 1014.0
20260507004541 50 91 0.0 2.6 0.00 0.00 0.00 86 1014.0
20260507003039 51 91 0.9 2.6 0.00 0.00 0.00 86 1014.1
20260507001549 50 0 0.0 2.6 0.00 0.00 0.00 85 1014.2
20260507000044 51 91 0.0 3.5 0.00 0.00 0.00 84 1014.2
20260506234544 51 91 0.9 3.5 0.00 0.00 0.00 84 1014.1
20260506233047 51 94 0.9 5.2 0.00 0.00 0.00 82 1014.1
20260506231547 50 93 1.7 6.1 0.00 0.00 0.00 83 1014.1
20260506230038 49 11 0.9 2.6 0.00 0.00 0.00 86 1014.1
20260506224539 49 0 0.0 2.6 0.00 0.00 0.00 86 1014.1
20260506223101 49 11 0.0 1.7 0.00 0.00 0.00 85 1014.1
20260506221543 49 11 0.9 2.6 0.00 0.00 0.00 86 1014.1
20260506220043 49 11 1.7 2.6 0.00 0.00 0.00 84 1014.0
20260506214543 49 11 1.7 3.5 0.00 0.00 0.00 84 1014.0
20260506213040 49 5 3.5 5.2 0.00 0.00 0.00 84 1014.0
20260506211540 49 5 4.3 7.0 0.00 0.00 0.00 84 1014.0
20260506210040 49 5 4.3 7.0 0.00 0.00 0.00 83 1013.9
20260506204545 50 355 4.3 7.0 0.00 0.00 0.00 83 1014.0
20260506203046 50 9 4.3 7.0 0.00 0.00 0.00 82 1013.9
20260506201543 50 22 4.3 7.8 0.00 0.00 0.00 81 1013.8